| time (UTC) | temp F | wind direction | speed MPH | gust MPH | rain 1hr in | rain 24hr in | rain mn in | humidity % | barometer mb |
| 20260903183405 | 73 | 89 | 4.0 | 14.0 | 0.00 | 0.35 | 0.35 | 77 | 1022.8 |
| 20260903182405 | 73 | 106 | 6.0 | 12.0 | 0.00 | 0.35 | 0.35 | 77 | 1022.7 |
| 20260903181905 | 73 | 85 | 4.0 | 16.0 | 0.00 | 0.35 | 0.35 | 77 | 1022.7 |
| 20260903181405 | 73 | 95 | 4.0 | 15.0 | 0.00 | 0.35 | 0.35 | 77 | 1022.7 |
| 20260903180905 | 73 | 100 | 6.0 | 14.0 | 0.00 | 0.35 | 0.35 | 77 | 1022.6 |
| 20260903180405 | 73 | 84 | 6.0 | 14.0 | 0.00 | 0.38 | 0.35 | 78 | 1022.6 |
| 20260903175905 | 73 | 66 | 7.0 | 12.0 | 0.00 | 0.39 | 0.35 | 77 | 1022.7 |
| 20260903175405 | 73 | 95 | 5.0 | 18.0 | 0.00 | 0.39 | 0.35 | 77 | 1022.6 |
| 20260903174905 | 73 | 135 | 6.0 | 13.0 | 0.00 | 0.39 | 0.35 | 78 | 1022.6 |
| 20260903174406 | 73 | 98 | 4.0 | 12.0 | 0.00 | 0.39 | 0.35 | 78 | 1022.6 |
| 20260903173405 | 73 | 89 | 6.0 | 12.0 | 0.00 | 0.41 | 0.35 | 79 | 1022.6 |
| 20260903172405 | 72 | 92 | 5.0 | 9.0 | 0.00 | 0.45 | 0.35 | 79 | 1022.7 |
| 20260903170904 | 73 | 91 | 4.0 | 12.0 | 0.00 | 0.46 | 0.35 | 78 | 1022.7 |
| 20260903170405 | 73 | 86 | 5.0 | 10.0 | 0.00 | 0.46 | 0.35 | 78 | 1022.8 |
| 20260903165905 | 72 | 78 | 6.0 | 15.0 | 0.00 | 0.47 | 0.35 | 78 | 1022.8 |
| 20260903165405 | 72 | 83 | 4.0 | 8.0 | 0.00 | 0.49 | 0.35 | 77 | 1022.8 |
| 20260903164905 | 72 | 101 | 6.0 | 10.0 | 0.00 | 0.50 | 0.35 | 77 | 1022.7 |
| 20260903164405 | 72 | 74 | 5.0 | 12.0 | 0.00 | 0.52 | 0.35 | 77 | 1022.7 |
| 20260903163905 | 72 | 101 | 5.0 | 12.0 | 0.00 | 0.54 | 0.35 | 78 | 1022.7 |
| 20260903163405 | 72 | 114 | 2.0 | 9.0 | 0.00 | 0.56 | 0.35 | 78 | 1022.7 |
| 20260903162905 | 72 | 95 | 2.0 | 12.0 | 0.00 | 0.63 | 0.35 | 78 | 1022.6 |
| 20260903162404 | 72 | 103 | 4.0 | 10.0 | 0.00 | 0.63 | 0.35 | 78 | 1022.6 |
| 20260903161906 | 72 | 81 | 5.0 | 9.0 | 0.00 | 0.63 | 0.35 | 77 | 1022.5 |
| 20260903161405 | 72 | 86 | 5.0 | 10.0 | 0.00 | 0.63 | 0.35 | 77 | 1022.5 |
| 20260903160905 | 73 | 104 | 3.0 | 9.0 | 0.00 | 0.63 | 0.35 | 77 | 1022.4 |
| 20260903160405 | 73 | 87 | 6.0 | 12.0 | 0.00 | 0.63 | 0.35 | 77 | 1022.4 |
| 20260903155905 | 73 | 108 | 2.0 | 8.0 | 0.00 | 0.63 | 0.35 | 76 | 1022.4 |
| 20260903155405 | 73 | 78 | 4.0 | 13.0 | 0.00 | 0.63 | 0.35 | 76 | 1022.4 |
| 20260903154905 | 73 | 94 | 6.0 | 13.0 | 0.00 | 0.63 | 0.35 | 75 | 1022.3 |
| 20260903154404 | 73 | 77 | 6.0 | 14.0 | 0.00 | 0.63 | 0.35 | 75 | 1022.3 |
| 20260903153905 | 73 | 91 | 4.0 | 14.0 | 0.00 | 0.63 | 0.35 | 76 | 1022.3 |
| 20260903153405 | 73 | 89 | 6.0 | 16.0 | 0.00 | 0.63 | 0.35 | 77 | 1022.2 |
| 20260903152905 | 73 | 83 | 5.0 | 12.0 | 0.00 | 0.63 | 0.35 | 76 | 1022.1 |
| 20260903151905 | 72 | 79 | 7.0 | 12.0 | 0.00 | 0.64 | 0.35 | 79 | 1022.1 |
| 20260903150906 | 72 | 100 | 4.0 | 9.0 | 0.00 | 0.64 | 0.35 | 79 | 1022.0 |
| 20260903150405 | 73 | 98 | 5.0 | 12.0 | 0.00 | 0.64 | 0.35 | 78 | 1021.9 |
| 20260903145907 | 73 | 85 | 4.0 | 13.0 | 0.00 | 0.64 | 0.35 | 78 | 1021.9 |
| 20260903144905 | 73 | 87 | 6.0 | 13.0 | 0.00 | 0.64 | 0.35 | 78 | 1021.9 |
| 20260903144405 | 73 | 72 | 5.0 | 13.0 | 0.00 | 0.64 | 0.35 | 77 | 1021.9 |
| 20260903143905 | 73 | 89 | 5.0 | 10.0 | 0.00 | 0.64 | 0.35 | 77 | 1021.9 |
| 20260903143405 | 73 | 85 | 5.0 | 12.0 | 0.00 | 0.64 | 0.35 | 77 | 1021.8 |
| 20260903142905 | 73 | 91 | 6.0 | 12.0 | 0.00 | 0.64 | 0.35 | 77 | 1021.8 |
| 20260903142405 | 73 | 91 | 6.0 | 12.0 | 0.00 | 0.64 | 0.35 | 77 | 1021.8 |
| 20260903141905 | 73 | 91 | 5.0 | 13.0 | 0.00 | 0.64 | 0.35 | 77 | 1021.8 |
| 20260903141405 | 73 | 86 | 4.0 | 12.0 | 0.00 | 0.64 | 0.35 | 76 | 1021.8 |
| 20260903140905 | 73 | 77 | 6.0 | 12.0 | 0.00 | 0.64 | 0.35 | 76 | 1021.8 |
| 20260903140405 | 73 | 75 | 6.0 | 12.0 | 0.00 | 0.64 | 0.35 | 76 | 1021.7 |
| 20260903135905 | 73 | 75 | 5.0 | 12.0 | 0.00 | 0.64 | 0.35 | 77 | 1021.7 |
| 20260903135405 | 73 | 108 | 5.0 | 12.0 | 0.00 | 0.64 | 0.35 | 77 | 1021.6 |
| 20260903134905 | 73 | 97 | 5.0 | 15.0 | 0.00 | 0.64 | 0.35 | 76 | 1021.7 |
| 20260903133905 | 73 | 83 | 6.0 | 12.0 | 0.00 | 0.64 | 0.35 | 76 | 1021.6 |
| 20260903133405 | 73 | 88 | 6.0 | 12.0 | 0.00 | 0.64 | 0.35 | 77 | 1021.5 |
| 20260903132906 | 73 | 96 | 6.0 | 12.0 | 0.00 | 0.64 | 0.35 | 77 | 1021.5 |
| 20260903132405 | 73 | 109 | 6.0 | 15.0 | 0.00 | 0.64 | 0.35 | 77 | 1021.5 |
| 20260903130405 | 75 | 104 | 6.0 | 14.0 | 0.00 | 0.64 | 0.35 | 74 | 1021.4 |
| 20260903125905 | 75 | 80 | 6.0 | 14.0 | 0.00 | 0.64 | 0.35 | 75 | 1021.4 |
| 20260903125405 | 75 | 109 | 9.0 | 14.0 | 0.00 | 0.64 | 0.35 | 74 | 1021.4 |
| 20260903124906 | 75 | 75 | 8.0 | 16.0 | 0.00 | 0.64 | 0.35 | 73 | 1021.4 |
| 20260903124405 | 75 | 73 | 5.0 | 12.0 | 0.00 | 0.64 | 0.35 | 73 | 1021.3 |
| 20260903123905 | 75 | 66 | 7.0 | 16.0 | 0.00 | 0.64 | 0.35 | 72 | 1021.3 |
| 20260903122905 | 76 | 83 | 8.0 | 17.0 | 0.00 | 0.64 | 0.35 | 73 | 1021.2 |
| 20260903121905 | 76 | 94 | 8.0 | 15.0 | 0.00 | 0.64 | 0.35 | 71 | 1021.2 |
| 20260903121404 | 76 | 89 | 7.0 | 15.0 | 0.00 | 0.64 | 0.35 | 71 | 1021.3 |
| 20260903120405 | 76 | 86 | 6.0 | 18.0 | 0.00 | 0.64 | 0.35 | 73 | 1021.2 |
| 20260903115905 | 76 | 96 | 10.0 | 18.0 | 0.00 | 0.64 | 0.35 | 72 | 1021.3 |
| 20260903115406 | 76 | 88 | 9.0 | 16.0 | 0.00 | 0.64 | 0.35 | 72 | 1021.1 |
| 20260903114906 | 76 | 93 | 9.0 | 16.0 | 0.00 | 0.64 | 0.35 | 72 | 1021.1 |
| 20260903113905 | 76 | 102 | 9.0 | 15.0 | 0.00 | 0.64 | 0.35 | 74 | 1021.1 |
| 20260903113405 | 75 | 92 | 8.0 | 18.0 | 0.00 | 0.64 | 0.35 | 76 | 1021.0 |
| 20260903112905 | 75 | 74 | 7.0 | 13.0 | 0.00 | 0.64 | 0.35 | 78 | 1021.0 |
| 20260903112405 | 74 | 95 | 5.0 | 12.0 | 0.00 | 0.64 | 0.35 | 79 | 1021.0 |
| 20260903111904 | 73 | 103 | 7.0 | 16.0 | 0.00 | 0.64 | 0.35 | 79 | 1021.1 |
| 20260903111406 | 74 | 124 | 6.0 | 12.0 | 0.00 | 0.64 | 0.35 | 78 | 1021.3 |
| 20260903110905 | 75 | 99 | 7.0 | 22.0 | 0.00 | 0.64 | 0.35 | 75 | 1021.4 |
| 20260903110405 | 76 | 120 | 6.0 | 20.0 | 0.00 | 0.64 | 0.35 | 74 | 1021.4 |
| 20260903105906 | 76 | 122 | 9.0 | 15.0 | 0.00 | 0.64 | 0.35 | 74 | 1021.3 |
| 20260903105404 | 76 | 114 | 6.0 | 16.0 | 0.00 | 0.64 | 0.35 | 75 | 1021.4 |
| 20260903104906 | 75 | 122 | 8.0 | 18.0 | 0.00 | 0.64 | 0.35 | 75 | 1021.4 |
| 20260903104405 | 75 | 107 | 6.0 | 15.0 | 0.00 | 0.64 | 0.35 | 77 | 1021.4 |
| 20260903103904 | 74 | 95 | 5.0 | 15.0 | 0.00 | 0.64 | 0.35 | 76 | 1021.5 |
| 20260903103405 | 73 | 111 | 5.0 | 10.0 | 0.01 | 0.64 | 0.35 | 79 | 1021.5 |
| 20260903102905 | 72 | 132 | 1.0 | 12.0 | 0.01 | 0.64 | 0.35 | 80 | 1021.5 |
| 20260903102405 | 71 | 81 | 3.0 | 12.0 | 0.01 | 0.64 | 0.35 | 79 | 1021.7 |
| 20260903101905 | 72 | 66 | 5.0 | 13.0 | 0.01 | 0.64 | 0.35 | 78 | 1021.7 |
| 20260903101405 | 74 | 44 | 7.0 | 14.0 | 0.01 | 0.64 | 0.35 | 78 | 1021.8 |
| 20260903100906 | 74 | 74 | 6.0 | 12.0 | 0.01 | 0.64 | 0.35 | 78 | 1021.8 |
| 20260903100405 | 73 | 111 | 6.0 | 12.0 | 0.01 | 0.64 | 0.35 | 80 | 1021.8 |
| 20260903095404 | 73 | 121 | 1.0 | 9.0 | 0.01 | 0.64 | 0.35 | 82 | 1021.9 |
| 20260903094905 | 73 | 65 | 5.0 | 10.0 | 0.01 | 0.64 | 0.35 | 82 | 1022.0 |
| 20260903094405 | 73 | 85 | 5.0 | 12.0 | 0.01 | 0.64 | 0.35 | 82 | 1022.1 |
| 20260903093405 | 75 | 65 | 7.0 | 14.0 | 0.00 | 0.63 | 0.35 | 77 | 1022.1 |
| 20260903092905 | 74 | 98 | 5.0 | 13.0 | 0.00 | 0.63 | 0.35 | 76 | 1022.2 |
| 20260903092405 | 74 | 95 | 6.0 | 13.0 | 0.00 | 0.63 | 0.35 | 76 | 1022.2 |
| 20260903091905 | 73 | 101 | 7.0 | 13.0 | 0.00 | 0.63 | 0.35 | 75 | 1022.4 |
| 20260903091405 | 74 | 82 | 6.0 | 12.0 | 0.00 | 0.63 | 0.35 | 76 | 1022.5 |
| 20260903090905 | 74 | 77 | 5.0 | 12.0 | 0.00 | 0.63 | 0.35 | 78 | 1022.6 |
| 20260903090405 | 73 | 81 | 1.0 | 8.0 | 0.00 | 0.63 | 0.35 | 79 | 1022.6 |
| 20260903085905 | 73 | 94 | 6.0 | 12.0 | 0.00 | 0.63 | 0.35 | 79 | 1022.6 |
| 20260903085405 | 73 | 125 | 6.0 | 12.0 | 0.00 | 0.63 | 0.35 | 79 | 1022.8 |
| 20260903084905 | 73 | 75 | 6.0 | 10.0 | 0.00 | 0.63 | 0.35 | 79 | 1022.8 |
| 20260903084405 | 73 | 88 | 6.0 | 12.0 | 0.00 | 0.63 | 0.35 | 79 | 1022.8 |
| 20260903083905 | 72 | 102 | 5.0 | 12.0 | 0.00 | 0.63 | 0.35 | 80 | 1022.9 |
| 20260903083406 | 72 | 88 | 7.0 | 13.0 | 0.00 | 0.63 | 0.35 | 81 | 1023.0 |
| 20260903082405 | 71 | 92 | 5.0 | 12.0 | 0.01 | 0.63 | 0.35 | 85 | 1023.2 |
| 20260903081906 | 70 | 108 | 5.0 | 12.0 | 0.02 | 0.63 | 0.35 | 87 | 1023.4 |
| 20260903081405 | 70 | 92 | 6.0 | 15.0 | 0.14 | 0.63 | 0.35 | 87 | 1023.6 |
| 20260903080905 | 70 | 133 | 7.0 | 14.0 | 0.18 | 0.63 | 0.35 | 87 | 1023.7 |
| 20260903075905 | 70 | 114 | 10.0 | 24.0 | 0.30 | 0.63 | 0.35 | 88 | 1023.8 |
| 20260903075405 | 70 | 96 | 12.0 | 20.0 | 0.30 | 0.63 | 0.35 | 89 | 1023.8 |
| 20260903074405 | 69 | 99 | 7.0 | 14.0 | 0.30 | 0.63 | 0.35 | 89 | 1024.0 |
| 20260903073905 | 68 | 122 | 6.0 | 15.0 | 0.30 | 0.63 | 0.35 | 89 | 1024.0 |
| 20260903073405 | 68 | 129 | 6.0 | 16.0 | 0.30 | 0.63 | 0.35 | 89 | 1024.1 |
| 20260903072905 | 67 | 114 | 7.0 | 14.0 | 0.30 | 0.63 | 0.35 | 89 | 1024.3 |
| 20260903072405 | 68 | 134 | 6.0 | 12.0 | 0.29 | 0.62 | 0.34 | 89 | 1024.4 |
| 20260903071905 | 68 | 90 | 9.0 | 17.0 | 0.28 | 0.61 | 0.32 | 88 | 1024.4 |
| 20260903071405 | 69 | 71 | 6.0 | 15.0 | 0.16 | 0.49 | 0.20 | 86 | 1024.5 |
| 20260903070905 | 70 | 70 | 10.0 | 20.0 | 0.12 | 0.45 | 0.17 | 82 | 1024.6 |
| 20260903070405 | 74 | 65 | 8.0 | 16.0 | 0.00 | 0.33 | 0.05 | 77 | 1024.6 |
| 20260903065905 | 75 | 133 | 9.0 | 14.0 | 0.00 | 0.33 | 0.05 | 75 | 1024.4 |
| 20260903065406 | 75 | 97 | 10.0 | 16.0 | 0.00 | 0.33 | 0.05 | 75 | 1024.5 |
| 20260903064905 | 75 | 109 | 8.0 | 20.0 | 0.00 | 0.33 | 0.05 | 75 | 1024.5 |
| 20260903064406 | 75 | 114 | 7.0 | 16.0 | 0.00 | 0.33 | 0.05 | 75 | 1024.6 |
| 20260903063904 | 75 | 112 | 11.0 | 20.0 | 0.00 | 0.33 | 0.05 | 75 | 1024.6 |
| 20260903063405 | 75 | 116 | 11.0 | 21.0 | 0.00 | 0.33 | 0.05 | 75 | 1024.7 |
| 20260903062905 | 75 | 141 | 9.0 | 18.0 | 0.00 | 0.33 | 0.05 | 75 | 1024.6 |
| 20260903062405 | 76 | 131 | 9.0 | 15.0 | 0.00 | 0.33 | 0.05 | 75 | 1024.6 |
| 20260903061905 | 76 | 125 | 7.0 | 20.0 | 0.00 | 0.33 | 0.05 | 75 | 1024.5 |
| 20260903061404 | 75 | 101 | 6.0 | 17.0 | 0.00 | 0.33 | 0.05 | 74 | 1024.5 |
| 20260903060905 | 75 | 127 | 7.0 | 15.0 | 0.00 | 0.33 | 0.05 | 74 | 1024.5 |
| 20260903060405 | 75 | 88 | 9.0 | 18.0 | 0.00 | 0.33 | 0.05 | 75 | 1024.4 |
| 20260903055905 | 75 | 117 | 8.0 | 14.0 | 0.00 | 0.33 | 0.05 | 76 | 1024.4 |
| 20260903054905 | 73 | 103 | 6.0 | 15.0 | 0.00 | 0.33 | 0.05 | 80 | 1024.3 |
| 20260903054405 | 73 | 119 | 7.0 | 17.0 | 0.00 | 0.33 | 0.05 | 79 | 1024.3 |
| 20260903053905 | 74 | 96 | 3.0 | 12.0 | 0.00 | 0.33 | 0.05 | 81 | 1024.5 |
| 20260903053405 | 73 | 96 | 6.0 | 13.0 | 0.00 | 0.33 | 0.05 | 80 | 1024.4 |
| 20260903052905 | 73 | 104 | 7.0 | 12.0 | 0.00 | 0.33 | 0.05 | 80 | 1024.4 |
| 20260903052405 | 73 | 98 | 5.0 | 12.0 | 0.00 | 0.33 | 0.05 | 81 | 1024.5 |
| 20260903051405 | 72 | 159 | 4.0 | 10.0 | 0.01 | 0.33 | 0.05 | 84 | 1024.4 |
| 20260903050405 | 69 | 138 | 0.0 | 0.0 | 0.02 | 0.33 | 0.05 | 86 | 1024.3 |
| 20260903045905 | 68 | 90 | 1.0 | 3.0 | 0.02 | 0.33 | 0.05 | 86 | 1024.3 |
| 20260903045405 | 68 | 108 | 0.0 | 6.0 | 0.02 | 0.33 | 0.05 | 87 | 1024.4 |
| 20260903044905 | 68 | 127 | 2.0 | 6.0 | 0.02 | 0.33 | 0.05 | 87 | 1024.4 |
| 20260903044405 | 68 | 93 | 0.0 | 6.0 | 0.02 | 0.33 | 0.05 | 87 | 1024.4 |
| 20260903043405 | 67 | 121 | 2.0 | 6.0 | 0.02 | 0.33 | 0.05 | 87 | 1024.3 |
| 20260903042905 | 66 | 98 | 3.0 | 10.0 | 0.02 | 0.33 | 0.05 | 86 | 1024.3 |
| 20260903041905 | 67 | 121 | 2.0 | 10.0 | 0.01 | 0.32 | 0.04 | 86 | 1024.5 |
| 20260903041405 | 67 | 122 | 7.0 | 14.0 | 0.01 | 0.32 | 0.04 | 87 | 1024.4 |
| 20260903040905 | 68 | 130 | 6.0 | 13.0 | 0.00 | 0.31 | 0.03 | 88 | 1024.3 |
| 20260903035405 | 68 | 92 | 1.0 | 5.0 | 0.00 | 0.31 | 0.03 | 87 | 1023.9 |
| 20260903034904 | 68 | 129 | 4.0 | 8.0 | 0.00 | 0.31 | 0.03 | 87 | 1023.9 |
| 20260903034405 | 68 | 96 | 2.0 | 8.0 | 0.01 | 0.31 | 0.03 | 87 | 1024.0 |
| 20260903033905 | 68 | 93 | 5.0 | 15.0 | 0.01 | 0.31 | 0.03 | 87 | 1024.0 |
| 20260903033404 | 68 | 76 | 7.0 | 13.0 | 0.01 | 0.31 | 0.03 | 87 | 1024.1 |
| 20260903032905 | 69 | 108 | 7.0 | 13.0 | 0.01 | 0.31 | 0.03 | 87 | 1024.0 |
| 20260903032405 | 69 | 102 | 6.0 | 15.0 | 0.02 | 0.31 | 0.03 | 87 | 1023.9 |
| 20260903031404 | 68 | 70 | 5.0 | 13.0 | 0.02 | 0.31 | 0.03 | 87 | 1023.9 |
| 20260903030405 | 68 | 95 | 1.0 | 3.0 | 0.02 | 0.31 | 0.03 | 87 | 1023.8 |
| 20260903025905 | 68 | 135 | 2.0 | 8.0 | 0.02 | 0.31 | 0.03 | 86 | 1023.8 |
| 20260903025405 | 68 | 110 | 1.0 | 7.0 | 0.02 | 0.31 | 0.03 | 86 | 1023.6 |
| 20260903024906 | 68 | 131 | 3.0 | 12.0 | 0.02 | 0.31 | 0.03 | 86 | 1023.5 |
| 20260903023905 | 67 | 151 | 6.0 | 10.0 | 0.02 | 0.31 | 0.02 | 85 | 1023.5 |
| 20260903023405 | 67 | 169 | 3.0 | 9.0 | 0.02 | 0.31 | 0.02 | 84 | 1023.6 |
| 20260903022905 | 68 | 111 | 5.0 | 13.0 | 0.02 | 0.31 | 0.02 | 83 | 1023.7 |
| 20260903022404 | 69 | 99 | 9.0 | 15.0 | 0.00 | 0.29 | 0.01 | 82 | 1023.7 |
| 20260903021905 | 69 | 95 | 2.0 | 13.0 | 0.00 | 0.29 | 0.01 | 84 | 1023.5 |
| 20260903021405 | 69 | 165 | 0.0 | 0.0 | 0.00 | 0.29 | 0.01 | 84 | 1023.3 |
| 20260903020904 | 69 | 165 | 0.0 | 0.0 | 0.00 | 0.29 | 0.01 | 84 | 1023.3 |
| 20260903020405 | 69 | 165 | 0.0 | 0.0 | 0.00 | 0.29 | 0.01 | 83 | 1023.2 |
| 20260903015904 | 69 | 161 | 0.0 | 0.0 | 0.00 | 0.29 | 0.01 | 83 | 1023.3 |
| 20260903015405 | 70 | 164 | 0.0 | 2.0 | 0.00 | 0.29 | 0.01 | 82 | 1023.2 |
| 20260903014905 | 71 | 164 | 1.0 | 5.0 | 0.00 | 0.29 | 0.01 | 82 | 1023.2 |
| 20260903014405 | 71 | 139 | 0.0 | 3.0 | 0.00 | 0.29 | 0.01 | 81 | 1023.2 |
| 20260903013905 | 71 | 136 | 1.0 | 8.0 | 0.00 | 0.29 | 0.01 | 81 | 1023.2 |
| 20260903013405 | 71 | 163 | 5.0 | 10.0 | 0.00 | 0.29 | 0.01 | 81 | 1023.1 |
| 20260903012905 | 71 | 121 | 4.0 | 9.0 | 0.00 | 0.29 | 0.01 | 81 | 1023.1 |
| 20260903012405 | 71 | 122 | 2.0 | 9.0 | 0.00 | 0.29 | 0.01 | 81 | 1023.1 |
| 20260903010405 | 72 | 116 | 3.0 | 10.0 | 0.00 | 0.29 | 0.01 | 80 | 1022.9 |
| 20260903005905 | 72 | 117 | 5.0 | 12.0 | 0.00 | 0.29 | 0.01 | 80 | 1022.9 |
| 20260903005405 | 72 | 129 | 5.0 | 12.0 | 0.00 | 0.29 | 0.01 | 80 | 1022.8 |
| 20260903004405 | 72 | 116 | 4.0 | 13.0 | 0.00 | 0.29 | 0.01 | 79 | 1022.8 |
| 20260903003905 | 72 | 99 | 5.0 | 14.0 | 0.00 | 0.29 | 0.01 | 79 | 1022.8 |
| 20260903003405 | 72 | 94 | 5.0 | 13.0 | 0.00 | 0.29 | 0.01 | 80 | 1022.8 |
| 20260903002905 | 72 | 92 | 5.0 | 13.0 | 0.00 | 0.29 | 0.01 | 80 | 1022.7 |
| 20260903002405 | 72 | 133 | 5.0 | 12.0 | 0.00 | 0.29 | 0.01 | 80 | 1022.8 |
| 20260903001905 | 72 | 96 | 3.0 | 9.0 | 0.00 | 0.29 | 0.01 | 80 | 1022.7 |
| 20260903000905 | 72 | 96 | 3.0 | 7.0 | 0.00 | 0.29 | 0.01 | 79 | 1022.7 |
| 20260903000405 | 72 | 122 | 6.0 | 12.0 | 0.00 | 0.29 | 0.01 | 79 | 1022.8 |
| 20260902235905 | 72 | 79 | 5.0 | 13.0 | 0.00 | 0.29 | 0.01 | 80 | 1022.8 |
| 20260902235405 | 72 | 94 | 6.0 | 12.0 | 0.00 | 0.29 | 0.01 | 81 | 1022.8 |
| 20260902234405 | 72 | 84 | 5.0 | 12.0 | 0.00 | 0.29 | 0.01 | 80 | 1022.8 |
| 20260902233905 | 72 | 102 | 6.0 | 13.0 | 0.00 | 0.29 | 0.01 | 80 | 1022.7 |
| 20260902233405 | 72 | 79 | 7.0 | 15.0 | 0.00 | 0.29 | 0.01 | 79 | 1022.7 |
| 20260902232905 | 72 | 106 | 7.0 | 16.0 | 0.00 | 0.29 | 0.01 | 79 | 1022.7 |
| 20260902231405 | 71 | 68 | 5.0 | 14.0 | 0.01 | 0.29 | 0.01 | 80 | 1022.6 |
| 20260902230905 | 71 | 106 | 4.0 | 10.0 | 0.01 | 0.29 | 0.01 | 80 | 1022.5 |
| 20260902230405 | 71 | 89 | 5.0 | 12.0 | 0.01 | 0.29 | 0.01 | 80 | 1022.5 |
| 20260902225905 | 71 | 91 | 6.0 | 14.0 | 0.01 | 0.29 | 0.01 | 80 | 1022.5 |
| 20260902224905 | 71 | 103 | 5.0 | 12.0 | 0.01 | 0.29 | 0.01 | 79 | 1022.6 |
| 20260902224405 | 72 | 87 | 7.0 | 13.0 | 0.01 | 0.29 | 0.01 | 79 | 1022.6 |
| 20260902223905 | 71 | 86 | 6.0 | 13.0 | 0.01 | 0.29 | 0.01 | 78 | 1022.6 |
| 20260902222405 | 71 | 91 | 6.0 | 13.0 | 0.00 | 0.28 | 0.00 | 81 | 1022.7 |
| 20260902221905 | 71 | 92 | 6.0 | 12.0 | 0.00 | 0.28 | 0.00 | 81 | 1022.7 |
| 20260902221404 | 71 | 99 | 6.0 | 15.0 | 0.00 | 0.28 | 0.00 | 80 | 1022.8 |
| 20260902220905 | 71 | 122 | 7.0 | 14.0 | 0.00 | 0.28 | 0.00 | 81 | 1022.8 |
| 20260902220405 | 71 | 119 | 5.0 | 12.0 | 0.00 | 0.28 | 0.00 | 82 | 1022.8 |
| 20260902215905 | 71 | 107 | 7.0 | 12.0 | 0.00 | 0.28 | 0.00 | 82 | 1022.9 |
| 20260902214905 | 70 | 111 | 5.0 | 12.0 | 0.00 | 0.28 | 0.00 | 83 | 1023.0 |
| 20260902214405 | 69 | 90 | 6.0 | 12.0 | 0.00 | 0.28 | 0.00 | 82 | 1023.1 |
| 20260902213905 | 70 | 129 | 5.0 | 13.0 | 0.00 | 0.28 | 0.00 | 82 | 1023.2 |
| 20260902213404 | 71 | 116 | 7.0 | 14.0 | 0.00 | 0.28 | 0.00 | 82 | 1023.3 |
| 20260902212905 | 71 | 111 | 6.0 | 17.0 | 0.00 | 0.28 | 0.00 | 82 | 1023.4 |
| 20260902211405 | 71 | 90 | 6.0 | 14.0 | 0.00 | 0.28 | 0.00 | 82 | 1023.5 |
| 20260902210905 | 71 | 81 | 5.0 | 12.0 | 0.00 | 0.28 | 0.00 | 82 | 1023.6 |
| 20260902210405 | 71 | 78 | 5.0 | 12.0 | 0.00 | 0.28 | 0.00 | 83 | 1023.8 |
| 20260902205905 | 71 | 109 | 5.0 | 12.0 | 0.00 | 0.28 | 0.00 | 83 | 1023.9 |
| 20260902205404 | 71 | 106 | 5.0 | 14.0 | 0.00 | 0.28 | 0.00 | 83 | 1023.9 |
| 20260902204905 | 71 | 81 | 5.0 | 10.0 | 0.00 | 0.28 | 0.00 | 82 | 1023.9 |
| 20260902204405 | 70 | 104 | 5.0 | 10.0 | 0.00 | 0.28 | 0.00 | 81 | 1023.9 |
| 20260902203905 | 70 | 112 | 4.0 | 10.0 | 0.00 | 0.28 | 0.00 | 80 | 1024.0 |
| 20260902203405 | 70 | 111 | 5.0 | 12.0 | 0.00 | 0.28 | 0.00 | 79 | 1024.1 |
| 20260902202904 | 71 | 92 | 8.0 | 15.0 | 0.00 | 0.28 | 0.00 | 79 | 1024.1 |
| 20260902202404 | 71 | 76 | 9.0 | 16.0 | 0.00 | 0.28 | 0.00 | 82 | 1024.0 |
| 20260902201905 | 71 | 80 | 6.0 | 13.0 | 0.00 | 0.28 | 0.00 | 83 | 1024.1 |
| 20260902201406 | 70 | 79 | 6.0 | 15.0 | 0.00 | 0.28 | 0.00 | 85 | 1024.1 |
| 20260902200906 | 70 | 107 | 5.0 | 12.0 | 0.00 | 0.28 | 0.00 | 86 | 1024.1 |
| 20260902200405 | 70 | 103 | 5.0 | 13.0 | 0.00 | 0.28 | 0.00 | 86 | 1024.1 |
| 20260902195905 | 70 | 68 | 3.0 | 8.0 | 0.00 | 0.28 | 0.28 | 86 | 1024.2 |
| 20260902195405 | 70 | 85 | 4.0 | 9.0 | 0.00 | 0.28 | 0.28 | 86 | 1024.2 |
| 20260902194905 | 70 | 69 | 6.0 | 12.0 | 0.00 | 0.28 | 0.28 | 85 | 1024.2 |
| 20260902194405 | 70 | 86 | 7.0 | 13.0 | 0.00 | 0.28 | 0.28 | 85 | 1024.2 |
| 20260902193905 | 70 | 89 | 7.0 | 17.0 | 0.00 | 0.28 | 0.28 | 85 | 1024.3 |
| 20260902193405 | 70 | 92 | 5.0 | 13.0 | 0.00 | 0.28 | 0.28 | 85 | 1024.3 |
| 20260902192404 | 70 | 87 | 2.0 | 10.0 | 0.00 | 0.28 | 0.28 | 85 | 1024.3 |
| 20260902191905 | 70 | 82 | 4.0 | 9.0 | 0.00 | 0.28 | 0.28 | 85 | 1024.3 |
| 20260902191405 | 70 | 131 | 8.0 | 12.0 | 0.00 | 0.28 | 0.28 | 85 | 1024.3 |
| 20260902190905 | 70 | 105 | 7.0 | 16.0 | 0.00 | 0.28 | 0.28 | 85 | 1024.4 |
| 20260902190405 | 69 | 77 | 5.0 | 12.0 | 0.02 | 0.28 | 0.28 | 86 | 1024.4 |
| 20260902185405 | 69 | 114 | 6.0 | 14.0 | 0.03 | 0.28 | 0.28 | 88 | 1024.3 |
| 20260902184905 | 69 | 104 | 5.0 | 12.0 | 0.03 | 0.28 | 0.28 | 89 | 1024.3 |
| 20260902184405 | 69 | 109 | 3.0 | 9.0 | 0.03 | 0.28 | 0.28 | 89 | 1024.3 |
| 20260902183904 | 69 | 103 | 3.0 | 8.0 | 0.03 | 0.28 | 0.28 | 89 | 1024.3 |